FW3958 Weather Reports


time (UTC)temp
C
wind
direction
speed
KPH
gust
KPH
rain 1hr
cm
rain 24hr
cm
rain mn
cm
humidity
%
barometer
mb
20260505184602 13 220 8.0 14.5 0.00 0.00 0.00 89 1019.3
20260505183119 13 198 8.0 14.5 0.00 0.00 0.00 89 1019.2
20260505181554 13 264 3.2 12.9 0.00 0.00 0.00 89 1019.1
20260505180053 13 240 3.2 11.3 0.00 0.00 0.00 88 1019.0
20260505174551 13 199 0.0 9.7 0.00 0.00 0.00 91 1019.0
20260505173053 13 282 1.6 4.8 0.00 0.00 0.00 91 1019.0
20260505171557 13 284 0.0 8.0 0.00 0.00 0.00 92 1019.0
20260505170047 13 240 0.0 6.4 0.00 0.00 0.00 92 1018.8
20260505164545 13 217 4.8 11.3 0.00 0.00 0.00 92 1018.7
20260505163044 13 210 1.6 9.7 0.00 0.00 0.00 93 1018.5
20260505161551 13 218 3.2 11.3 0.00 0.00 0.00 93 1018.3
20260505153037 12 220 0.0 0.0 0.00 0.00 0.00 94 1018.2
20260505151537 12 220 0.0 0.0 0.00 0.00 0.00 94 1018.1
20260505124522 11 205 0.0 6.4 0.00 0.00 0.00 96 1017.2
20260505123019 11 219 0.0 6.4 0.00 0.00 0.00 95 1016.9
20260505121521 12 201 4.8 14.5 0.00 0.00 0.00 95 1016.7
20260505120048 12 210 3.2 11.3 0.00 0.00 0.00 95 1016.6
20260505114517 12 215 4.8 14.5 0.00 0.00 0.00 95 1016.7
20260505113015 12 193 6.4 14.5 0.00 0.00 0.00 95 1016.8
20260505111513 12 185 6.4 12.9 0.00 0.00 0.00 95 1016.9
20260505101517 12 205 4.8 14.5 0.00 0.00 0.00 95 1016.7
20260505100009 12 212 4.8 12.9 0.00 0.00 0.00 95 1016.7
20260505094502 12 205 11.3 17.7 0.00 0.00 0.00 95 1016.7
20260505093102 12 218 6.4 12.9 0.00 0.00 0.00 95 1016.6
20260505091605 12 204 9.7 17.7 0.00 0.00 0.00 95 1016.5
20260505090056 12 206 3.2 12.9 0.00 0.00 0.00 96 1016.4
20260505084555 12 184 4.8 12.9 0.00 0.00 0.00 96 1016.4
20260505083054 12 220 6.4 16.1 0.00 0.00 0.00 97 1016.5
20260505081553 12 213 4.8 14.5 0.00 0.00 0.00 97 1016.5
20260505080051 12 216 4.8 12.9 0.00 0.00 0.00 97 1016.5
20260505074551 12 206 6.4 14.5 0.00 0.00 0.00 97 1016.4
20260505073101 12 198 4.8 12.9 0.00 0.00 0.00 97 1016.3
20260505071551 12 201 3.2 11.3 0.00 0.00 0.00 97 1016.1
20260505070043 12 224 8.0 14.5 0.00 0.00 0.00 97 1016.1
20260505064543 12 214 6.4 14.5 0.00 0.00 0.00 97 1016.1
20260505063042 12 201 4.8 16.1 0.00 0.00 0.00 97 1016.0
20260505061549 12 164 3.2 9.7 0.00 0.00 0.00 97 1015.9
20260505060039 12 199 6.4 14.5 0.00 0.00 0.00 97 1015.8
20260505054558 12 211 6.4 14.5 0.00 0.00 0.00 98 1015.8
20260505053041 12 191 1.6 12.9 0.00 0.00 0.00 98 1015.9
20260505051538 12 196 6.4 14.5 0.00 0.00 0.00 97 1015.7
20260505041537 12 211 8.0 14.5 0.00 0.00 0.00 97 1015.7
20260505040035 12 332 6.4 20.9 0.00 0.00 0.00 96 1015.4
20260505034534 12 249 6.4 16.1 0.00 0.00 0.00 96 1015.4
20260505033034 12 205 9.7 17.7 0.00 0.00 0.00 96 1015.3
20260505031543 12 184 6.4 14.5 0.00 0.00 0.00 96 1015.2
20260505030035 12 233 11.3 24.1 0.00 0.00 0.00 95 1015.2
20260505024631 12 224 12.9 22.5 0.00 0.00 0.00 94 1015.0
20260505023030 13 200 9.7 22.5 0.00 0.00 0.00 93 1015.0
20260505021530 13 218 9.7 22.5 0.00 0.00 0.00 91 1015.1
20260505020032 13 199 9.7 24.1 0.00 0.00 0.00 91 1015.1
20260505014535 13 294 12.9 29.0 0.00 0.00 0.00 90 1015.2
20260505013027 14 178 16.1 29.0 0.00 0.00 0.00 91 1015.2
20260505011533 14 220 12.9 35.4 0.00 0.00 0.00 91 1015.3
20260505010029 14 211 11.3 37.0 0.00 0.00 0.00 90 1015.2
20260505004543 14 170 11.3 29.0 0.00 0.00 0.00 89 1015.2
20260505003026 14 229 17.7 30.6 0.00 0.00 0.00 90 1015.2
20260505001525 15 209 19.3 29.0 0.00 0.00 0.00 89 1015.4
20260505000036 15 147 17.7 30.6 0.00 0.00 0.00 89 1015.6
20260504234524 15 202 16.1 30.6 0.00 0.00 0.00 89 1015.3
20260504233023 15 181 19.3 30.6 0.00 0.00 0.00 89 1015.3
20260504231522 15 194 20.9 32.2 0.00 0.00 0.00 88 1015.4
20260504230021 15 186 12.9 30.6 0.00 0.00 0.00 89 1015.4
20260504224520 15 203 12.9 30.6 0.00 0.00 0.00 89 1015.6
20260504223021 15 232 20.9 32.2 0.00 0.00 0.00 88 1015.4
20260504221519 15 198 9.7 32.2 0.00 0.00 0.00 90 1015.7
20260504220019 15 188 16.1 33.8 0.00 0.00 0.00 89 1015.7
20260504214519 16 232 19.3 30.6 0.00 0.00 0.00 88 1015.6
20260504213018 15 212 19.3 33.8 0.00 0.00 0.00 87 1015.7
20260504211518 16 172 19.3 33.8 0.00 0.00 0.00 86 1015.7
20260504210021 16 203 17.7 35.4 0.00 0.00 0.00 88 1016.0
20260504204515 16 207 14.5 33.8 0.00 0.00 0.00 87 1015.7
20260504203015 16 182 17.7 33.8 0.00 0.00 0.00 86 1015.8
20260504201514 16 208 17.7 29.0 0.00 0.00 0.00 86 1015.8
20260504200014 16 204 16.1 32.2 0.00 0.00 0.00 87 1015.7
20260504194513 16 217 17.7 29.0 0.00 0.00 0.00 85 1015.8
20260504193013 16 213 17.7 30.6 0.00 0.00 0.00 85 1015.9
20260504191511 16 197 14.5 27.4 0.00 0.00 0.00 84 1015.9
20260504190010 16 197 12.9 24.1 0.00 0.00 0.00 85 1015.9